Regional Weather Roundup
Issued by NWS Mobile, AL

Home | Current Version | Previous Version | Text Only | Print | Product List | Glossary On
Versions: 1 2 3 4 5 6 7 8 9 10 11 12 13 14 15 16 17 18 19 20 21 22 23 24 25 26 27
000
ASUS44 KMOB 232010
RWRMOB
REGIONAL WEATHER ROUNDUP
NATIONAL WEATHER SERVICE MOBILE AL
300 PM CDT THU OCT 23 2014

NOTE: "FAIR" INDICATES FEW OR NO CLOUDS BELOW 12,000 FEET WITH NO
      SIGNIFICANT WEATHER AND/OR OBSTRUCTIONS TO VISIBILITY.

  * THESE STATIONS ARE PART OF THE UNIVERSITY OF SOUTH ALABAMA
    MESONET AND ARE NOT UNDER NWS OR FAA QUALITY CONTROL.

ALZ061>064-232100-
COASTAL ALABAMA

CITY           SKY/WX    TMP DP  RH WIND       PRES   REMARKS
MOBILE REG APT MOSUNNY   73  43  33 NE8       30.04F
BROOKLEY FIELD SUNNY     73  46  38 E5        30.05F
USA CAMPUS*      N/A     73  45  35 CALM      30.03F
DOG RIVER*     NOT AVBL


CITY           SKY/WX    TMP DP  RH WIND       PRES   REMARKS
MOUNT VERNON*    N/A     72  41  33 CALM      30.04F
SARALAND*      NOT AVBL
BAY MINETTE*   NOT AVBL
LOXLEY*          N/A     73  39  29 N3        30.03F
ROBERTSDALE*     N/A     73  43  33 CALM      30.02F
FAIRHOPE*        N/A     73  46  38 E3        30.01F
ELBERTA*         N/A     75  39  27 E3        30.02F
FOLEY*           N/A     73  41  31 NE5       30.01F
GRAND BAY*       N/A     73  41  31 CALM      30.02F
DAUPHIN ISLND* NOT AVBL
BON SCOUR NWR* NOT AVBL
GULF SHORES    SUNNY     72  51  46 W7        30.02F

$$

ALZ051>060-232100-
INTERIOR SOUTHWEST AND SOUTH CENTRAL ALABAMA

CITY           SKY/WX    TMP DP  RH WIND       PRES   REMARKS
GREENVILLE     SUNNY     75  39  27 VRB5      30.04F
EVERGREEN      SUNNY     76  40  27 NE7       30.04F
CASTLEBERRY*   NOT AVBL
ATMORE*          N/A     75  39  27 CALM      30.04F
DIXIE*           N/A     75  43  31 CALM      30.01F
ANDALUSIA/OPP  SUNNY     79  41  25 NE8       30.03F
ANDALUSIA*       N/A     73  39  29 N8        30.04F
FLORALA APT    SUNNY     76  42  29 NE5       30.05S
FLORALA*         N/A     73  41  31 NE5       30.01F

$$

FLZ001>006-232100-
WESTERN FLORIDA PANHANDLE

CITY           SKY/WX    TMP DP  RH WIND       PRES   REMARKS
PENSACOLA      SUNNY     75  41  29 N7        30.02F
NAS PENSACOLA  MOSUNNY   72  47  40 SE6       30.03F
MILTON         MOSUNNY   75  41  29 NE7       30.03F
WHTNG S FIELD  MOSUNNY   77  43  29 E6        30.02F


CITY           SKY/WX    TMP DP  RH WIND       PRES   REMARKS
WALNUT HILL*   NOT AVBL
JAY*             N/A     73  34  23 NE3       30.03F
DUKE FIELD     MOSUNNY   76  37  24 N7        30.02F
CRESTVIEW      SUNNY     76  40  27 NE7       30.04S
VALPARAISO     MOSUNNY   75  47  36 S6        30.02F
DESTIN         SUNNY     75  43  31 CALM      30.02F

$$

MSZ076-079-232100-
INTERIOR SOUTHEAST MISSISSIPPI

CITY           SKY/WX    TMP DP  RH WIND       PRES   REMARKS
LEAKESVILLE*     N/A     72  41  33 W5        30.05F
AGRICOLA*      NOT AVBL

$$

MARINE OBSERVATIONS

STATION/POSITION TIME  TEMP    WIND        PRES    WAVE
                       AIR SEA DIR/SP/G            HT/PER
                 (UTC) (F)     (DEG/KT/KT) (MB)    (FT/S)
PASCAGOULA       2000   69     160/  9/ 12 1016.9F
PETIT BOIS ISLND 2000   71      80/  8/ 10 1017.3F
GRAND BAY        1900   68     140/  7     1019.0S
KATRINA CUT      1900   69      80/  8     1018.0F
CEDAR POINT      1900   67      60/  5     1018.3R
E DAUPHIN ISLAND 1900   67     350/  5/  6 1017.9F
MIDDLE BAY LIGHT 1900   71     360/ 11     1016.6F
USCG MOBILE BAY  2000   71 73   40/  6/  9 1015.7F
STATE DOCKS      2000   73 75              1016.8F
MEAHER PARK      1900   72     320/  5     1016.9F
WEEKS BAY        1900   74                   N/A
FORT MORGAN      2000   68      20/  6/  7 1016.5F
12 S ORANGE BCH  2000   69 78   70/  6/ 10 1016.9F   3/ 6
PENSACOLA BAY    2000   75 73  150/  2/  5 1016.9S
64 S DAUPHIN ISL 1910   72 80   70/ 12/ 17 1016.7F   3/ 6

$$

SELECTED LOCATIONS ACROSS THE REGION

CITY           SKY/WX    TMP DP  RH WIND       PRES   REMARKS
NEW ORLEANS    MOSUNNY   73  45  36 N10       30.04F
GULFPORT       SUNNY     75  42  30 N6        30.03F
PASCAGOULA AP  SUNNY     75  42  30 MISG      30.03F
PASCAGOULA*      N/A     73  45  35 E5        30.03F
HATTIESBURG    PTSUNNY   74  43  32 MISG      30.07F
LAUREL         PTSUNNY   72  43  35 N6        30.09S
MERIDIAN       NOT AVBL
JACKSON        CLOUDY    67  45  45 NE8       30.09F
MONTGOMERY     SUNNY     73  39  29 W6        30.05F
TROY           SUNNY     73  42  32 CALM      30.04F
KINSTON*       NOT AVBL
GENEVA*          N/A     73  37  27 NE6       30.03F
ASHFORD*         N/A     73  39  29 N8        30.04F
DOTHAN         SUNNY     73  41  31 NE5       30.05F
PANAMA CITY    SUNNY     78  41  26 VRB6      29.99F

$$




USA.gov is the U.S. government's official web portal to all federal, state and local government web resources and services.